Regional Weather Roundup
Issued by NWS

Home | Current Version | Previous Version | Text Only | Print | Product List | Glossary On
Versions: 1 2 3 4 5 6 7 8 9 10 11 12 13 14 15 16 17 18 19 20 21 22 23 24 25 26 27 28 29 30 31 32 33 34 35 36 37 38 39 40 41 42 43 44 45 46 47 48 49 50
000
ASUS43 KTOP 181059
RWRKS

WEATHER ROUNDUP FOR KANSAS
NATIONAL WEATHER SERVICE GOODLAND KS
600 AM CDT SAT APR 18 2015

NOTE:  "FAIR" INDICATES FEW OR NO CLOUDS BELOW 12,000 FEET WITH NO
SIGNIFICANT WEATHER AND/OR OBSTRUCTIONS TO VISIBILITY.

KSZ001>006-013>018-027>032-041>047-181200-
NORTHWEST KANSAS

CITY           SKY/WX    TMP DP  RH WIND       PRES   REMARKS
GOODLAND       FOG       38  38 100 W3        29.92R VSB 1/4
HAYS           CLEAR     48  41  76 SE3       29.90F
HILL CITY      PTCLDY    48  45  89 SW3       29.91F
RUSSELL        PTCLDY    52  51  97 NE6       29.89F
$$

KSZ061>065-074>080-084>089-181200-
SOUTHWEST KANSAS

CITY           SKY/WX    TMP DP  RH WIND       PRES   REMARKS
DODGE CITY     FOG       55  53  93 S14       29.91F VSB 1/2
ELKHART          N/A    N/A N/A N/A MISG        N/A
GARDEN CITY    CLOUDY    52  52 100 S10       29.88S
GREAT BEND     MOCLDY    55  50  82 E3        29.91F
LIBERAL        MOCLDY    48  45  87 S7        29.90F
$$

KSZ066>073-081>083-090>101-181200-
SOUTHEAST KANSAS

CITY           SKY/WX    TMP DP  RH WIND       PRES   REMARKS
CHANUTE        LGT RAIN  63  62  97 SE6       29.89F
COFFEYVILLE    TSTM      62  60  93 W14G30    29.91S FOG
HUTCHINSON     CLOUDY    61  57  87 E6        29.90F
MEDICINE LODGE   N/A     55  54  96 CALM      29.89F
NEWTON         CLOUDY    57  54  88 SE5       29.93S
PARSONS        TSTM      61  59  93 W10       29.93R FOG
WICHITA INTL   CLOUDY    62  58  86 SE7       29.91R
WICHITA JABRA  CLOUDY    59  58  96 MISG      29.91S
WINFIELD       LGT RAIN  62  60  93 MISG      29.93S
$$

KSZ007>012-019>026-033>040-048>060-102>105-181200-
NORTHEAST KANSAS

CITY           SKY/WX    TMP DP  RH WIND       PRES   REMARKS
CONCORDIA      LGT RAIN  59  59 100 SW7       29.91R
EMPORIA        TSTM      59  55  87 CALM      29.91F FOG
LAWRENCE       CLOUDY    56  55  97 SE3       29.90F
MANHATTAN      CLOUDY    60  58  92 CALM      29.90S
OLATHE IND     CLOUDY    61  58  90 E6        29.91F
OLATHE EXE     CLOUDY    62  58  86 E5        29.90F
SALINA         CLOUDY    61  58  90 SW5       29.90F
TOPEKA BILLARD CLOUDY    58  56  93 CALM      29.91S
TOPEKA FORBES  CLOUDY    60  57  89 S3        29.90S
$$


USA.gov is the U.S. government's official web portal to all federal, state and local government web resources and services.